EN

Hourly Weather Dziurow

Today, 26 October, Monday

Time Temperature Precipitation Wind Pressure Humidity
00:00 +11°C° 0 mm 4 mps 740 mmHg 92%
01:00 +11°C° 0 mm 3 mps 740 mmHg 93%
02:00 +11°C° 0 mm 3 mps 739 mmHg 94%
03:00 +11°C° 0 mm 3 mps 739 mmHg 94%
04:00 +10°C° 0 mm 3 mps 739 mmHg 95%
05:00 +10°C° 0 mm 3 mps 739 mmHg 95%
06:00 +10°C° 0 mm 3 mps 739 mmHg 95%
07:00 +10°C° 0 mm 3 mps 739 mmHg 95%
08:00 +12°C° 0 mm 4 mps 739 mmHg 88%
09:00 +13°C° 0 mm 4 mps 738 mmHg 80%
10:00 +15°C° 0 mm 5 mps 738 mmHg 73%
11:00 +16°C° 0 mm 5 mps 738 mmHg 70%
12:00 +16°C° 0 mm 5 mps 738 mmHg 67%
13:00 +17°C° 0 mm 6 mps 738 mmHg 64%
14:00 +16°C° 0 mm 5 mps 738 mmHg 67%
15:00 +15°C° 0 mm 5 mps 738 mmHg 70%
16:00 +15°C° 0 mm 4 mps 737 mmHg 73%
17:00 +14°C° 0 mm 5 mps 738 mmHg 76%
18:00 +13°C° 0 mm 5 mps 738 mmHg 79%
19:00 +13°C° 0 mm 5 mps 738 mmHg 82%
20:00 +13°C° 0 mm 5 mps 738 mmHg 81%
21:00 +13°C° 0 mm 4 mps 738 mmHg 81%
22:00 +14°C° 0 mm 4 mps 738 mmHg 80%
23:00 +14°C° 0 mm 4 mps 738 mmHg 81%

Tomorrow, 27 October, Tuesday

Time Temperature Precipitation Wind Pressure Humidity
00:00 +13°C° 0 mm 3 mps 738 mmHg 81%
01:00 +13°C° 0 mm 3 mps 738 mmHg 82%
02:00 +13°C° 0 mm 3 mps 738 mmHg 83%
03:00 +13°C° 0 mm 3 mps 738 mmHg 84%
04:00 +12°C° 0 mm 3 mps 738 mmHg 85%
05:00 +12°C° 0 mm 3 mps 739 mmHg 87%
06:00 +11°C° 0 mm 3 mps 739 mmHg 88%
07:00 +11°C° 0 mm 3 mps 739 mmHg 89%
08:00 +13°C° 0 mm 3 mps 739 mmHg 83%
09:00 +14°C° 0 mm 4 mps 739 mmHg 77%
10:00 +17°C° 0 mm 4 mps 739 mmHg 71%
11:00 +18°C° 0 mm 4 mps 739 mmHg 67%
12:00 +19°C° 0 mm 4 mps 739 mmHg 63%
13:00 +19°C° 0 mm 4 mps 739 mmHg 59%
14:00 +18°C° 0 mm 4 mps 739 mmHg 63%
15:00 +17°C° 0 mm 4 mps 739 mmHg 67%
16:00 +16°C° 0 mm 3 mps 739 mmHg 71%
17:00 +16°C° 0 mm 3 mps 739 mmHg 74%
18:00 +14°C° 0 mm 3 mps 740 mmHg 77%
19:00 +13°C° 0 mm 3 mps 740 mmHg 80%
20:00 +13°C° 0 mm 3 mps 740 mmHg 81%
21:00 +12°C° 0 mm 3 mps 740 mmHg 83%
22:00 +12°C° 0 mm 3 mps 740 mmHg 84%
23:00 +13°C° 0 mm 2 mps 741 mmHg 85%

Day after tomorrow, 28 October, Wednesday

Time Temperature Precipitation Wind Pressure Humidity
00:00 +13°C° 0 mm 2 mps 741 mmHg 86%
01:00 +12°C° 0 mm 2 mps 741 mmHg 86%
02:00 +12°C° 0 mm 2 mps 741 mmHg 88%
03:00 +12°C° 0 mm 1 mps 741 mmHg 91%
04:00 +11°C° 0 mm 1 mps 742 mmHg 93%
05:00 +11°C° 0 mm 1 mps 742 mmHg 94%
06:00 +10°C° 0 mm 0 mps 742 mmHg 94%
07:00 +10°C° 0 mm 0 mps 742 mmHg 95%
08:00 +11°C° 0 mm 0 mps 742 mmHg 88%
09:00 +12°C° 0 mm 0 mps 743 mmHg 81%
10:00 +15°C° 0 mm 1 mps 743 mmHg 74%
11:00 +16°C° 0 mm 1 mps 743 mmHg 71%
12:00 +18°C° 0 mm 1 mps 742 mmHg 68%
13:00 +17°C° 0 mm 2 mps 742 mmHg 65%
14:00 +17°C° 0 mm 2 mps 742 mmHg 69%
15:00 +16°C° 0 mm 1 mps 742 mmHg 74%
16:00 +15°C° 0 mm 1 mps 742 mmHg 78%
17:00 +14°C° 0 mm 1 mps 742 mmHg 80%
18:00 +14°C° 0 mm 1 mps 742 mmHg 83%
19:00 +13°C° 0 mm 1 mps 742 mmHg 85%
20:00 +13°C° 0 mm 1 mps 742 mmHg 86%
21:00 +13°C° 0 mm 1 mps 742 mmHg 86%
22:00 +13°C° 0 mm 1 mps 742 mmHg 87%
23:00 +12°C° 0 mm 1 mps 743 mmHg 88%

29 October, Thursday

Time Temperature Precipitation Wind Pressure Humidity
00:00 +12°C° 0 mm 1 mps 743 mmHg 89%
01:00 +12°C° 0 mm 2 mps 743 mmHg 89%
02:00 +12°C° 0 mm 2 mps 743 mmHg 90%
03:00 +10°C° 0 mm 2 mps 743 mmHg 90%
04:00 +10°C° 0 mm 2 mps 743 mmHg 91%
05:00 +10°C° 0 mm 2 mps 743 mmHg 89%
06:00 +10°C° 0 mm 2 mps 743 mmHg 87%
07:00 +9°C° 0 mm 2 mps 743 mmHg 85%
08:00 +12°C° 0 mm 2 mps 744 mmHg 79%
09:00 +13°C° 0 mm 2 mps 744 mmHg 73%
10:00 +13°C° 0 mm 3 mps 744 mmHg 67%
11:00 +14°C° 0 mm 3 mps 744 mmHg 64%
12:00 +16°C° 0 mm 3 mps 744 mmHg 62%
13:00 +17°C° 0 mm 3 mps 744 mmHg 59%
14:00 +16°C° 0 mm 3 mps 744 mmHg 62%
15:00 +14°C° 0 mm 3 mps 744 mmHg 65%
16:00 +14°C° 0 mm 2 mps 744 mmHg 68%
17:00 +14°C° 0 mm 2 mps 745 mmHg 69%
18:00 +12°C° 0 mm 3 mps 745 mmHg 71%
19:00 +12°C° 0 mm 3 mps 746 mmHg 72%
20:00 +12°C° 0 mm 2 mps 746 mmHg 74%
21:00 +12°C° 0 mm 2 mps 746 mmHg 76%
22:00 +10°C° 0 mm 2 mps 746 mmHg 78%
23:00 +10°C° 0 mm 2 mps 747 mmHg 81%

30 October, Friday

Time Temperature Precipitation Wind Pressure Humidity
00:00 +9°C° 0 mm 2 mps 747 mmHg 84%
01:00 +9°C° 0 mm 2 mps 747 mmHg 87%
02:00 +9°C° 0 mm 3 mps 747 mmHg 86%
03:00 +9°C° 0 mm 3 mps 747 mmHg 85%
04:00 +8°C° 0 mm 3 mps 747 mmHg 84%
05:00 +9°C° 0 mm 3 mps 747 mmHg 84%
06:00 +9°C° 0 mm 3 mps 747 mmHg 84%
07:00 +9°C° 0 mm 3 mps 747 mmHg 84%
08:00 +10°C° 0 mm 4 mps 747 mmHg 78%
09:00 +11°C° 0 mm 4 mps 747 mmHg 73%
10:00 +12°C° 0 mm 5 mps 747 mmHg 68%
11:00 +13°C° 0 mm 5 mps 747 mmHg 67%
12:00 +13°C° 0 mm 4 mps 747 mmHg 67%
13:00 +14°C° 0 mm 4 mps 747 mmHg 66%
14:00 +13°C° 0 mm 4 mps 747 mmHg 69%
15:00 +13°C° 0 mm 3 mps 747 mmHg 73%
16:00 +12°C° 0 mm 3 mps 747 mmHg 76%
17:00 +12°C° 0 mm 3 mps 747 mmHg 76%
18:00 +11°C° 0 mm 3 mps 747 mmHg 77%
19:00 +11°C° 0 mm 3 mps 747 mmHg 78%
20:00 +11°C° 0 mm 3 mps 747 mmHg 78%
21:00 +11°C° 0 mm 3 mps 748 mmHg 78%
22:00 +11°C° 0 mm 3 mps 748 mmHg 78%
23:00 +11°C° 0 mm 3 mps 748 mmHg 78%

31 October, Saturday

Time Temperature Precipitation Wind Pressure Humidity
00:00 +10°C° 0 mm 2 mps 748 mmHg 78%
01:00 +10°C° 0 mm 2 mps 748 mmHg 78%
02:00 +10°C° 0 mm 2 mps 748 mmHg 79%
03:00 +10°C° 0 mm 2 mps 748 mmHg 80%
04:00 +9°C° 0 mm 2 mps 748 mmHg 80%
05:00 +9°C° 0 mm 2 mps 747 mmHg 81%
06:00 +9°C° 0 mm 2 mps 747 mmHg 81%
07:00 +9°C° 0 mm 2 mps 747 mmHg 81%
Show more